Location: Bucaritos
(10.0779°N, 67.0369°W)
Time: 21:41:52
(UTC+00:00)

Cosmos 494 Rocket - Pass Details

Date: 27 June 2022
Orbit: 741 x 771 km, 74.1° (Epoch: 14 August)

Event Time Altitude Azimuth Distance (km) Brightness Sun altitude
Rises 23:14:11 0° 356° (N) 3,197 7.6 -5.7°
Reaches altitude 10° 23:16:36 10° 1° (N) 2,277 6.8 -6.2°
Maximum altitude 23:21:37 52° 77° (ENE) 945 4.2 -7.3°
Drops below altitude 10° 23:26:40 10° 153° (SSE) 2,297 6.0 -8.4°
Enters shadow 23:28:27 - 156° (SSE) 2,976 6.6 -8.8°
